Location: Paralde Spring
(38.5794°N, 119.0140°W)
Time: 23:08:43
(UTC+00:00)

CZ-4B R/B - Pass Details

Date: 18 September 2020
Orbit: 486 x 652 km, 97.9° (Epoch: 20 October)

Event Time Altitude Azimuth Distance (km) Brightness Sun altitude
Rises 12:55:20 0° 14° (NNE) 2,630 6.6 -9.7°
Reaches altitude 10° 12:57:28 10° 17° (NNE) 1,721 5.7 -9.2°
Maximum altitude 13:01:08 71° 101° (ESE) 525 2.9 -8.5°
Drops below altitude 10° 13:04:42 10° 187° (S) 1,668 5.1 -7.9°
Sets 13:06:44 0° 189° (S) 2,541 6.0 -7.5°
